Hourly Data Report for September 08, 2017

All times are specified in Local Standard Time (LST). Add 1 hour to adjust for Daylight Saving Time where and when it is observed.

BATHURST A
NEW BRUNSWICK

47°37'47.000" N
65°44'20.000" W
58.80 m
8100505
71574
ZBF

Download Data

Hourly Data (September 2017)
Hourly Data Report for September 8, 2017
Temp Definition
°C
Dew Point Temp Definition
°C
Rel Hum Definition
%
Wind Dir Definition
10's deg

Wind Spd Definition
km/h
Visibility Definition
km
Stn Press Definition
kPa
Hmdx Definition


Wind Chill Definition


Weather Definition


TIME
00:00 Legend Double Dagger 12.4 11.8 96 16 3 24.1 99.94     LegendNANA
01:00 Legend Double Dagger 11.8 11.4 98 19 7 24.1 100.00     LegendNANA
02:00 Legend Double Dagger 11.5 11.1 97 21 4 24.1 100.01     Clear
03:00 Legend Double Dagger 11.3 10.9 97 21 10 24.1 100.02     LegendNANA
04:00 Legend Double Dagger 11.2 10.5 96 22 5 24.1 100.07     LegendNANA
05:00 Legend Double Dagger 11.1 10.5 96 29 4 24.1 100.09     Clear
06:00 Legend Double Dagger 11.4 10.8 96 0 1 24.1 100.17     LegendNANA
07:00 Legend Double Dagger 14.7 12.7 88 26 10 24.1 100.23     LegendNANA
08:00 Legend Double Dagger 15.8 12.2 79 25 14 24.1 100.34     Mostly Cloudy
09:00 Legend Double Dagger 17.3 11.5 68 26 26 24.1 100.41     LegendNANA
10:00 Legend Double Dagger 18.7 11.9 64 24 25 24.1 100.47     LegendNANA
11:00 Legend Double Dagger 19.3 11.4 60 25 25 24.1 100.48     Mostly Cloudy
12:00 Legend Double Dagger 18.4 11.4 63 29 13 24.1 100.54     LegendNANA
13:00 Legend Double Dagger 19.1 11.4 61 25 21 24.1 100.56     LegendNANA
14:00 Legend Double Dagger 19.7 10.9 57 26 15 24.1 100.59     Mostly Cloudy
15:00 Legend Double Dagger 19.2 13.1 67 33 9 24.1 100.64     LegendNANA
16:00 Legend Double Dagger 19.4 13.8 69 34 7 24.1 100.70     LegendNANA
17:00 Legend Double Dagger 17.9 12.6 71 28 8 24.1 100.81     Mostly Cloudy
18:00 Legend Double Dagger 15.7 14.2 91 21 4 24.1 100.86     LegendNANA
19:00 Legend Double Dagger 15.3 13.9 91 36 2 24.1 100.94     LegendNANA
20:00 Legend Double Dagger 14.8 13.7 93 20 4 16.1 101.02     Cloudy
21:00 Legend Double Dagger 14.4 13.1 92 30 7 24.1 101.05     LegendNANA
22:00 Legend Double Dagger 12.6 11.6 94 27 6 24.1 101.07     LegendNANA
23:00 Legend Double Dagger 12.9 12.0 95 1 7 24.1 101.13     Mainly Clear

Notes on Data Quality.

Legend

  • E = Estimated
  • M = Missing
  • NA = Not Available
  • ‡ = Partner data that is not subject to review by the National Climate Archives
Date modified: